Waarnemingen

Advertentie
Mijn weer
Vigo Peinador, Spanje (8045): temperatuur & dauwpunt: 17.04.2018 04:00:00 - 23.04.2018 04:00:00 (CEST)Vigo Peinador, Spanje (8045): windsnelheid: 17.04.2018 04:00:00 - 23.04.2018 04:00:00 (CEST)Vigo Peinador, Spanje (8045): windrichting: 17.04.2018 04:00:00 - 23.04.2018 04:00:00 (CEST)Vigo Peinador, Spanje (8045): luchtdruk: 17.04.2018 04:00:00 - 23.04.2018 04:00:00 (CEST)Vigo Peinador, Spanje (8045): zicht: 17.04.2018 04:00:00 - 23.04.2018 04:00:00 (CEST)
Datum & Tijd tt [°C] td [°C] ff [km/u] ff [kn] dd ppp [hPa] vv [km]
23.04.2018 04:00:00 - - - - - - -
23.04.2018 03:00:00 12,1 11,5 11 6 NNO 1017,1 10
23.04.2018 02:00:00 12,0 11,7 4 2 - 1017,2 10
23.04.2018 01:00:00 12,0 11,6 4 2 - 1017,3 10
23.04.2018 00:00:00 13,5 12,7 9 5 NNO 1017,1 10
22.04.2018 23:00:00 13,8 13,0 13 7 NNO 1017,4 20
22.04.2018 22:00:00 14,5 13,0 2 1 - 1016,6 10
22.04.2018 21:00:00 15,5 12,8 13 7 W 1015,7 10
22.04.2018 20:00:00 17,8 12,9 15 8 W 1015,1 25
22.04.2018 19:00:00 17,7 13,2 18 10 W 1015,1 10
22.04.2018 18:00:00 18,0 13,7 26 14 WZW 1014,7 10
22.04.2018 17:00:00 20,6 12,8 15 8 W 1014,4 20
22.04.2018 16:00:00 19,7 14,2 18 10 W 1015,2 10
22.04.2018 15:00:00 18,6 14,6 22 12 W 1015,4 10
22.04.2018 14:00:00 18,7 14,4 24 13 WZW 1015,2 20
22.04.2018 13:00:00 21,3 13,3 8 4 NO 1014,8 10
22.04.2018 12:00:00 19,5 13,8 5 3 Z 1015,7 10
22.04.2018 11:00:00 16,4 13,6 4 2 ZZW 1015,9 15
22.04.2018 10:00:00 14,5 13,4 9 5 ZZW 1016,3 10
22.04.2018 09:00:00 13,8 13,0 0 0 N 1016,2 10
22.04.2018 08:00:00 13,0 12,5 2 1 - 1016,1 9
22.04.2018 07:00:00 13,1 12,8 0 0 N 1015,8 9
22.04.2018 06:00:00 12,5 12,5 2 1 - 1016,4 9
22.04.2018 05:00:00 12,9 12,5 5 3 N 1016,7 10
22.04.2018 04:00:00 12,8 12,3 4 2 N 1016,9 10
22.04.2018 03:00:00 13,3 12,5 5 3 NNO 1017,5 10
22.04.2018 02:00:00 13,4 12,5 4 2 NNW 1017,4 10
22.04.2018 01:00:00 13,3 12,5 2 1 - 1017,3 10
22.04.2018 00:00:00 13,9 12,8 9 5 W 1017,4 9
21.04.2018 23:00:00 14,6 13,5 9 5 W 1016,9 9
21.04.2018 22:00:00 16,1 13,6 2 1 - 1015,8 9
21.04.2018 21:00:00 16,3 13,2 2 1 ONO 1015,0 8
21.04.2018 20:00:00 16,8 12,8 8 4 NNO 1015,0 10
21.04.2018 19:00:00 17,9 11,6 4 2 ZO 1015,6 10
21.04.2018 18:00:00 18,4 11,9 11 6 Z 1015,5 10
21.04.2018 17:00:00 18,7 13,1 21 11 WZW 1015,8 9
21.04.2018 16:00:00 23,9 11,8 11 6 WZW 1014,1 10
21.04.2018 15:00:00 23,5 10,7 8 4 ZZW 1014,1 10
21.04.2018 14:00:00 23,3 10,7 2 1 ONO 1013,9 25
21.04.2018 13:00:00 18,8 12,8 11 6 ZZW 1015,0 10
21.04.2018 12:00:00 18,1 11,3 5 3 Z 1015,0 10
21.04.2018 11:00:00 16,3 10,3 9 5 ZZW 1015,2 10
21.04.2018 10:00:00 15,1 10,3 8 4 WZW 1015,1 10
21.04.2018 09:00:00 14,9 10,7 13 7 WZW 1015,0 10
21.04.2018 08:00:00 15,1 9,9 9 5 WZW 1014,6 10
21.04.2018 07:00:00 16,0 9,2 8 4 ZW 1014,1 10
21.04.2018 06:00:00 15,4 10,8 11 6 ZW 1014,5 10
21.04.2018 05:00:00 16,0 10,5 11 6 ZW 1014,4 10
21.04.2018 04:00:00 17,6 9,0 8 4 Z 1014,3 10
21.04.2018 03:00:00 17,2 9,0 4 2 ZZO 1014,7 10
21.04.2018 02:00:00 17,7 10,5 4 2 WNW 1015,0 25
21.04.2018 01:00:00 18,2 11,3 4 2 - 1015,1 10
21.04.2018 00:00:00 18,4 11,5 8 4 WZW 1014,9 10
20.04.2018 23:00:00 18,6 12,1 5 3 WZW 1014,9 25
20.04.2018 22:00:00 19,1 12,8 5 3 W 1014,2 10
20.04.2018 21:00:00 21,0 12,4 2 1 WNW 1013,5 10
20.04.2018 20:00:00 21,6 12,0 18 10 W 1013,4 30
20.04.2018 19:00:00 24,1 12,9 8 4 WZW 1012,8 10
20.04.2018 18:00:00 26,6 12,1 8 4 ZZW 1012,7 10
20.04.2018 17:00:00 26,4 7,2 13 7 ONO 1013,0 10
20.04.2018 16:00:00 27,2 7,5 21 11 NO 1013,7 10
20.04.2018 15:00:00 26,6 7,8 18 10 O 1014,0 10
20.04.2018 14:00:00 27,0 9,0 16 9 - - 10
20.04.2018 13:00:00 24,7 10,3 4 2 NNO 1015,4 10
20.04.2018 12:00:00 23,4 9,7 8 4 O 1015,9 10
20.04.2018 11:00:00 21,0 9,5 4 2 Z 1016,0 30
20.04.2018 10:00:00 15,9 10,2 8 4 ZW 1016,7 10
20.04.2018 09:00:00 13,9 10,5 13 7 ZW 1016,7 10
20.04.2018 08:00:00 13,7 10,3 11 6 W 1016,5 10
20.04.2018 07:00:00 13,3 10,7 15 8 ZW 1016,3 10
20.04.2018 06:00:00 13,6 11,3 11 6 ZW 1016,4 10
20.04.2018 05:00:00 13,9 11,1 4 2 O 1016,3 10
20.04.2018 04:00:00 13,8 11,3 2 1 - 1016,6 10
20.04.2018 03:00:00 14,6 11,4 0 0 N 1016,8 10
20.04.2018 02:00:00 14,0 12,0 4 2 ONO 1017,0 10
20.04.2018 01:00:00 14,5 12,6 9 5 NNO 1017,3 10
20.04.2018 00:00:00 15,0 12,9 8 4 NNO 1017,7 10
19.04.2018 23:00:00 15,5 13,5 13 7 N 1017,7 10
19.04.2018 22:00:00 16,1 13,9 11 6 NNO 1017,6 10
19.04.2018 21:00:00 16,1 14,3 9 5 NO 1017,6 10
19.04.2018 20:00:00 17,6 14,1 9 5 N 1017,7 20
19.04.2018 19:00:00 18,9 14,1 8 4 W 1017,6 10
19.04.2018 18:00:00 18,0 13,7 15 8 W 1018,0 10
19.04.2018 17:00:00 17,4 12,5 22 12 W 1018,6 20
19.04.2018 16:00:00 18,4 12,1 22 12 W 1019,1 10
19.04.2018 15:00:00 19,1 11,3 22 12 WZW 1019,1 10
19.04.2018 14:00:00 21,2 12,1 8 4 ONO 1019,3 10
19.04.2018 13:00:00 19,5 10,4 8 4 NO 1019,8 10
19.04.2018 12:00:00 18,8 10,5 8 4 NO 1020,0 10
19.04.2018 11:00:00 16,1 10,3 4 2 ONO 1020,3 30
19.04.2018 10:00:00 13,8 9,9 2 1 Z 1020,6 10
19.04.2018 09:00:00 12,4 9,4 0 0 N 1020,8 10
19.04.2018 08:00:00 10,4 8,2 9 5 W 1020,6 10
19.04.2018 07:00:00 10,9 7,8 2 1 W 1020,3 10
19.04.2018 06:00:00 11,0 7,7 0 0 N 1020,5 10
19.04.2018 05:00:00 11,0 7,7 0 0 N 1020,9 25
19.04.2018 04:00:00 11,4 7,7 2 1 WZW 1021,3 10
19.04.2018 03:00:00 11,8 7,5 2 1 N 1021,7 10
19.04.2018 02:00:00 11,9 7,4 0 0 N 1022,0 30
19.04.2018 01:00:00 12,5 6,5 0 0 N 1022,2 10
19.04.2018 00:00:00 13,0 6,7 5 3 N 1022,2 10
18.04.2018 23:00:00 13,6 5,4 4 2 N 1022,3 35
18.04.2018 22:00:00 15,1 5,3 4 2 NNW 1021,7 10
18.04.2018 21:00:00 15,8 8,8 18 10 W 1020,9 10
18.04.2018 20:00:00 18,8 7,1 21 11 W 1020,3 10
18.04.2018 19:00:00 20,9 7,2 24 13 W 1019,6 10
18.04.2018 18:00:00 22,4 9,9 21 11 W 1019,1 10
18.04.2018 17:00:00 24,3 8,7 22 12 ZW 1019,0 45
18.04.2018 16:00:00 24,2 10,2 18 10 ZZW 1019,2 10
18.04.2018 15:00:00 23,7 8,5 16 9 - 1019,5 10
18.04.2018 14:00:00 22,4 7,8 24 13 Z 1020,3 45
18.04.2018 13:00:00 21,0 10,4 18 10 Z 1020,7 10
18.04.2018 12:00:00 18,7 9,8 16 9 ZZW 1021,0 10
18.04.2018 11:00:00 15,4 11,7 15 8 ZZW 1021,2 40
18.04.2018 10:00:00 12,7 11,5 15 8 ZW 1021,3 10
18.04.2018 09:00:00 11,4 11,4 16 9 ZZW 1021,5 10
18.04.2018 08:00:00 10,2 10,2 11 6 ZZW 1021,4 10
18.04.2018 07:00:00 10,2 10,2 5 3 ZW 1021,4 10
18.04.2018 06:00:00 10,8 10,5 5 3 WZW 1021,6 10
18.04.2018 05:00:00 10,3 9,8 4 2 - 1021,9 10
18.04.2018 04:00:00 10,8 10,3 8 4 WZW 1022,4 10
18.04.2018 03:00:00 11,5 10,7 8 4 WZW 1022,7 10
18.04.2018 02:00:00 11,8 11,2 4 2 ZW 1023,0 30
18.04.2018 01:00:00 11,3 10,5 0 0 N 1023,3 10
18.04.2018 00:00:00 11,3 11,0 2 1 WNW 1023,6 10
17.04.2018 23:00:00 12,0 11,3 4 2 N 1023,8 30
17.04.2018 22:00:00 12,6 12,1 4 2 - 1023,4 10
17.04.2018 21:00:00 14,1 12,5 5 3 - 1022,9 10
17.04.2018 20:00:00 18,1 10,3 11 6 WZW 1022,2 40
17.04.2018 19:00:00 19,1 9,8 21 11 ZW 1022,1 10
17.04.2018 18:00:00 18,8 10,2 22 12 Z 1022,3 10
17.04.2018 17:00:00 19,8 10,5 24 13 ZZW 1022,1 10
17.04.2018 16:00:00 19,3 11,0 24 13 ZZW 1022,2 10
17.04.2018 15:00:00 19,4 10,5 22 12 Z 1022,1 10
17.04.2018 14:00:00 18,7 10,0 29 16 Z 1022,4 40
17.04.2018 13:00:00 17,9 9,7 31 17 Z 1022,4 10
17.04.2018 12:00:00 15,9 8,9 26 14 Z 1022,6 10
17.04.2018 11:00:00 15,0 8,7 21 11 Z 1022,4 40
17.04.2018 10:00:00 12,7 8,2 18 10 Z 1022,5 10
17.04.2018 09:00:00 11,9 7,4 16 9 Z 1022,2 10
17.04.2018 08:00:00 11,4 7,8 16 9 Z 1021,5 25
17.04.2018 07:00:00 11,3 7,8 15 8 Z 1021,1 10
17.04.2018 06:00:00 11,1 8,0 16 9 Z 1020,9 10
17.04.2018 05:00:00 11,0 8,4 22 12 Z 1021,0 20
17.04.2018 04:00:00 10,9 8,8 24 13 Z 1021,1 10

tt = temperatuur
td = dauwpunt
ff = windsnelheid
dd = windrichting
ppp = luchtdruk
vv = zicht

Weerstations in de omgeving